Location: Newark
(33.6439°N, 114.9881°W)
Time: 10:43:42
(UTC+00:00)

Envisat - Pass Details

Date: 27 March 2019
Orbit: 764 x 766 km, 98.2° (Epoch: 24 April)

Event Time Altitude Azimuth Distance (km) Brightness Sun altitude
Rises 03:47:56 0° 218° (SW) 3,219 6.5 -23.6°
Reaches altitude 10° 03:52:24 10° 256° (WSW) 2,300 6.2 -24.4°
Maximum altitude 03:53:32 11° 269° (W) 2,253 6.3 -24.6°
Drops below altitude 10° 03:54:41 10° 282° (WNW) 2,303 6.5 -24.9°
Sets 03:59:11 0° 320° (NW) 3,235 7.2 -25.7°
